Weather Roundup
Issued by NWS Corpus Christi, TX

Home | Current Version | Previous Version | Text Only | Print | Product List | Glossary On
Versions: 1 2 3 4 5 6 7 8 9 10 11 12 13 14 15 16 17 18 19 20 21 22 23 24 25 26 27 28 29 30 31 32 33 34 35 36 37 38 39 40 41 42 43 44 45 46 47 48 49 50
201
ASUS44 KCRP 100610
HRRCRP

SOUTH TEXAS REGIONAL WEATHER ROUNDUP
NATIONAL WEATHER SERVICE CORPUS CHRISTI TX
1200 AM CST WED FEB 10 2016


TXZ229>244-100700-
...CORPUS CHRISTI AREA OBSERVATIONS...

CITY           SKY/WX    TMP DP  RH WIND       PRES   REMARKS
CORPUS CHRISTI CLEAR     50  35  56 SW12      30.33R
NAS CORPUS CHR CLEAR     54  47  77 SW9       30.33R
ROCKPORT       CLEAR     52  47  83 SW6       30.32R
KINGSVILLE NAS CLEAR     51  43  74 SW12      30.33F
ALICE            N/A     48  39  71 SW10      30.33S
FALFURRIAS     CLEAR     49  37  62 SW3       30.34F
$$

...VICTORIA AREA OBSERVATIONS...

CITY           SKY/WX    TMP DP  RH WIND       PRES   REMARKS
VICTORIA       CLEAR     46  36  68 CALM      30.30S
BEEVILLE       FAIR      49  37  62 SW3       30.32S
PLEASANTON     CLEAR     42  32  66 CALM      30.32S
SAN ANTONIO    CLEAR     48  33  56 NW6       30.31S
$$

...LAREDO AREA OBSERVATIONS...

CITY           SKY/WX    TMP DP  RH WIND       PRES   REMARKS
LAREDO         CLEAR     52  29  41 SE3       30.33S
COTULLA        CLEAR     49  26  41 N3        30.32S
DEL RIO        CLEAR     50  25  37 N5        30.33S
MCALLEN        CLEAR     48  34  58 SE5       30.36F
HEBBRONVILLE   NOT AVBL
$$

...OTHER TEXAS OBSERVATIONS...

CITY           SKY/WX    TMP DP  RH WIND       PRES   REMARKS
BROWNSVILLE    CLEAR     47  44  90 S5        30.36F
HOUSTON        CLEAR     45  36  70 CALM      30.31S
COL. STATION   CLEAR     51  29  42 NE6       30.32R
AUSTIN         CLEAR     40  32  73 N7        30.33R
WACO           CLEAR     43  27  53 N8        30.35R
FORT WORTH     CLEAR     41  24  51 N7        30.33R
WICHITA FALLS  CLEAR     39  25  57 CALM      30.33S
LUBBOCK        CLEAR     39  19  44 W5        30.33R
EL PASO        CLEAR     45  19  35 N3        30.34R
$$

...MARINE OBSERVATIONS...

STATION/POSITION TIME  SKY/WX   TEMP    WIND        PRES    VSBY  WAVE   SWELL
                                AIR SEA DIR/SP/G                  HT/PER HT/PER
                 (UTC)          (F)     (DEG/KT/KT) (MB)    (MI)  (FT/S) (FT/S)
PORT ARANSAS     0600            60 59  200/ 12/ 14 1027.4R
BUOY 90 E PORT A 0550            66 67  240/ 12/ 14 1026.1S         1/ 2
BUOY 45 SE BAFFI 0550            66 69  190/ 10/ 14 1026.8F         1/ 5
BUOY 200 E PT IS 0550                                 N/A           5/ 8   3/ 8
BUOY 15 E GALVES 0550            58 56  310/  8/  8 1026.2R         0
$$




USA.gov is the U.S. government's official web portal to all federal, state and local government web resources and services.